Location: Heidgraben
(53.7081°N, 9.6576°E)
Time: 22:37:25
(UTC+00:00)

Cosmos 2333 Rocket - Pass Details

Date: 25 October 2020
Orbit: 841 x 861 km, 70.8° (Epoch: 28 November)

Event Time Altitude Azimuth Distance (km) Brightness Sun altitude
Exits shadow 04:44:53 - 325° (NW) 3,250 4.9 -12.9°
Reaches altitude 10° 04:47:23 10° 338° (NNW) 2,486 4.4 -12.5°
Maximum altitude 04:51:49 23° 30° (NNE) 1,749 4.2 -11.9°
Drops below altitude 10° 04:56:14 10° 81° (E) 2,470 6.0 -11.2°
Sets 04:59:13 0° 96° (E) 3,400 7.7 -10.8°
